sat.trackr.live / text

‹ back to catalog

STARLINK-5955

NORAD 56342 · 2023-058AB

PAYLOAD ACTIVE UNKNOWN

§ Identity

Operator
Country
US
Launch date
2023-04-27
Launch site
AFWTR
Launch vehicle
Mass (kg)
RCS (m²)

Purposes: comms

External: N2YO · Heavens-Above · Gunter

§ Orbital elements

Epoch: 2026-09-20T22:30:18.032544Z

Period
93.91 min
Inclination
97.2842°
Eccentricity
0.0001473
Mean motion
15.33438742 rev/d
Perigee alt
464.6 km
Apogee alt
466.6 km
Semi-major
6,843.7 km
B*
2.6063e-5
RAAN
260.7090°
Arg perigee
100.7664°
Mean anomaly
259.3744°
Rev number
18,770

§ Raw data

STARLINK-59551 56342U 23058AB  26263.93770871  .00000766  00000+0  26063-4 0  99982 56342  97.2842 260.7090 0001473 100.7664 259.3744 15.33438742187704

JSON: /api/v1/satellites/56342 · /tle

For live sub-satellite position, see the globe view (requires WebGL).

§ Visibility from observer

Set your observer location to see the next 7 days of passes ≥ 10°. The values pass through the URL so the page stays shareable.

No JS? Fill the form by hand. The geolocation button needs JavaScript.